This is the latest recevied weather packets stored in our database for station/object EA5GK-10. If no packets are shown the sender has not sent any weather packets the latest 10 day(s).
| Time | Temp. | Humidity | Pressure | Rain* | Wind** | Luminosity | Snow |
|---|---|---|---|---|---|---|---|
| 1787757889 | 33.33° C | 34% | 1011.4 hPa | - | - | - | - |
| 1787756989 | 33.33° C | 34% | 1011.3 hPa | - | - | - | - |
| 1787756089 | 33.33° C | 33% | 1011.3 hPa | - | - | - | - |
| 1787755188 | 33.33° C | 32% | 1011.3 hPa | - | - | - | - |
| 1787754288 | 33.33° C | 32% | 1011.4 hPa | - | - | - | - |
| 1787753388 | 33.33° C | 32% | 1011.6 hPa | - | - | - | - |
| 1787752488 | 33.33° C | 31% | 1011.7 hPa | - | - | - | - |
| 1787751588 | 33.33° C | 31% | 1011.7 hPa | - | - | - | - |
| 1787750688 | 32.78° C | 31% | 1011.8 hPa | - | - | - | - |
| 1787749788 | 32.78° C | 31% | 1012.1 hPa | - | - | - | - |
| 1787748887 | 32.78° C | 32% | 1012 hPa | - | - | - | - |
| 1787747987 | 32.22° C | 32% | 1012.1 hPa | - | - | - | - |
| 1787747087 | 32.22° C | 33% | 1012.2 hPa | - | - | - | - |
| 1787746187 | 31.67° C | 34% | 1012.3 hPa | - | - | - | - |
| 1787745287 | 31.67° C | 35% | 1012.7 hPa | - | - | - | - |
| 1787744387 | 31.11° C | 35% | 1012.7 hPa | - | - | - | - |
| 1787743487 | 31.11° C | 36% | 1012.8 hPa | - | - | - | - |
| 1787742586 | 30.56° C | 37% | 1013.2 hPa | - | - | - | - |
| 1787741686 | 30.56° C | 38% | 1013.5 hPa | - | - | - | - |
| 1787740786 | 30° C | 40% | 1013.6 hPa | - | - | - | - |
| 1787739886 | 30° C | 42% | 1013.8 hPa | - | - | - | - |
| 1787738986 | 29.44° C | 43% | 1014 hPa | - | - | - | - |
| 1787738086 | 28.33° C | 44% | 1014.3 hPa | - | - | - | - |
| 1787737186 | 28.33° C | 45% | 1014.1 hPa | - | - | - | - |
| 1787736286 | 27.78° C | 45% | 1014.1 hPa | - | - | - | - |
* Rain since midnight (hover to see other rain measurements)
** Current wind speed in m/s (hover to see current wind gust speed)